Tracking 25686 objects as of 25-May-2022
HD Live streaming from Space Station
objects crossing your sky now

ANIK C1 R/B(PAM-D)

Track ANIK C1 R/B(PAM-D) now!


NORAD ID: 15644
Int'l Code: 1985-028D
Perigee: 332.4 km
Apogee: 30,148.8 km
Inclination: 23.0 °
Period: 527.0 minutes
Semi major axis: 21611 km
RCS: 2.9686 m2 (large)
Launch date: April 12, 1985
Source: United States (US)
Launch site: AIR FORCE EASTERN TEST RANGE (AFETR)

Note: This is a ROCKET BODY
aabbcc
Your satellite tracking list
Your tracking list is empty




NASA's NSSDC Master Catalog

Two Line Element Set (TLE):
1 15644U 85028D   22144.53963500  .00001285  00000-0  82341-3 0  9994
2 15644  22.9769 134.7055 6898254 169.3930 220.9645  2.73257899345580
Source of the keplerian elements: AFSPC